JR6GUC-13 Weather Reports


time (UTC)temp
C
wind
direction
speed
KPH
gust
KPH
rain 1hr
cm
rain 24hr
cm
rain mn
cm
humidity
%
barometer
mb
20260902185043 26 113 3.2 0.0 0.00 0.00 0.03 81 1004.9
20260902184550 27 104 3.2 0.0 0.00 0.00 0.03 80 1004.9
20260902184032 27 89 3.2 0.0 0.00 0.00 0.03 80 1004.9
20260902183534 27 136 3.2 0.0 0.00 0.00 0.03 80 1005.0
20260902183041 27 145 3.2 0.0 0.00 0.00 0.00 78 1005.0
20260902182529 27 106 6.4 0.0 0.00 0.00 0.00 77 1005.0
20260902182033 27 109 6.4 0.0 0.00 0.00 0.00 76 1005.0
20260902181540 27 105 6.4 0.0 0.00 0.00 0.00 76 1005.0
20260902181048 27 124 3.2 0.0 0.00 0.00 0.00 75 1005.0
20260902180533 27 132 1.6 0.0 0.00 0.00 0.00 75 1005.0
20260902180039 27 97 3.2 0.0 0.00 0.00 0.00 75 1005.0
20260902175548 27 87 3.2 0.0 0.00 0.00 0.00 76 1005.0
20260902175052 27 113 1.6 0.0 0.00 0.00 0.00 77 1005.1
20260902174539 27 82 0.0 0.0 0.00 0.00 0.00 77 1005.1
20260902174048 27 82 0.0 0.0 0.00 0.00 0.00 77 1005.1
20260902173532 27 82 1.6 0.0 0.00 0.00 0.00 78 1005.4
20260902173040 27 82 1.6 0.0 0.00 0.00 0.00 78 1005.4
20260902172544 27 83 1.6 0.0 0.00 0.00 0.00 78 1005.4
20260902172028 27 95 1.6 0.0 0.00 0.00 0.00 79 1005.5
20260902171536 27 84 1.6 0.0 0.00 0.00 0.00 79 1005.5
20260902171044 27 84 1.6 0.0 0.00 0.00 0.00 78 1005.5
20260902170527 27 84 1.6 0.0 0.00 0.00 0.00 78 1005.7
20260902170035 27 84 1.6 0.0 0.00 0.00 0.00 78 1005.7
20260902165542 27 84 1.6 0.0 0.00 0.00 0.00 77 1005.7
20260902165044 27 41 0.0 0.0 0.00 0.00 0.00 77 1005.7
20260902164545 27 46 0.0 0.0 0.00 0.00 0.00 75 1005.7
20260902164032 28 46 0.0 0.0 0.00 0.00 0.00 74 1005.7
20260902163536 27 18 0.0 0.0 0.00 0.00 0.00 74 1005.8
20260902163105 27 15 0.0 0.0 0.00 0.00 0.00 74 1005.8
20260902162531 27 330 0.0 0.0 0.00 0.00 0.00 74 1005.8
20260902162035 27 330 0.0 0.0 0.00 0.00 0.00 73 1006.0
20260902161543 27 52 0.0 0.0 0.00 0.00 0.00 73 1006.0
20260902161031 27 52 0.0 0.0 0.00 0.00 0.00 73 1006.0
20260902160532 27 52 0.0 0.0 0.00 0.00 0.00 73 1005.9
20260902160040 27 52 1.6 0.0 0.00 0.00 0.00 73 1005.9
20260902155547 28 72 6.4 0.0 0.00 0.00 0.00 73 1005.9
20260902155030 28 115 8.0 0.0 0.00 0.00 0.00 73 1006.0
20260902154537 28 122 6.4 0.0 0.00 0.00 0.00 73 1006.0
20260902154045 28 101 4.8 0.0 0.00 0.00 0.00 73 1006.0
20260902153528 28 133 4.8 0.0 0.00 0.00 0.00 73 1006.1
20260902153032 28 103 6.4 0.0 0.00 0.00 0.00 72 1006.1
20260902152539 28 86 8.0 0.0 0.00 0.00 0.00 72 1006.1
20260902152042 28 109 6.4 0.0 0.00 0.00 0.00 72 1006.1
20260902151529 28 108 4.8 0.0 0.00 0.00 0.00 72 1006.1
20260902151054 28 92 3.2 0.0 0.00 0.00 0.00 72 1006.1
20260902150548 28 92 1.6 0.0 0.00 0.00 0.00 71 1006.2
20260902150104 28 92 1.6 0.0 0.00 0.00 0.00 70 1006.2
20260902145536 28 92 3.2 0.0 0.00 0.00 0.00 70 1006.2
20260902145037 28 91 1.6 0.0 0.00 0.00 0.00 70 1006.2
20260902144545 28 91 1.6 0.0 0.00 0.00 0.00 70 1006.2
20260902144033 28 88 1.6 0.0 0.00 0.00 0.00 70 1006.2
20260902143538 28 84 1.6 0.0 0.00 0.00 0.00 70 1006.3
20260902143046 28 84 1.6 0.0 0.00 0.00 0.00 71 1006.3
20260902142534 28 84 3.2 0.0 0.00 0.00 0.00 71 1006.3
20260902142040 28 34 3.2 0.0 0.00 0.00 0.00 71 1006.3
20260902141544 28 78 1.6 0.0 0.00 0.00 0.00 72 1006.3
20260902141033 28 78 0.0 0.0 0.00 0.00 0.00 72 1006.3
20260902140538 28 78 1.6 0.0 0.00 0.00 0.00 72 1006.4
20260902140046 28 78 3.2 0.0 0.00 0.00 0.00 72 1006.4
20260902135535 28 49 4.8 0.0 0.00 0.00 0.00 72 1006.4
20260902135040 28 95 4.8 0.0 0.00 0.00 0.00 71 1006.6
20260902134548 28 63 3.2 0.0 0.00 0.00 0.00 72 1006.6
20260902134036 28 91 3.2 0.0 0.00 0.00 0.00 72 1006.6
20260902133537 28 83 4.8 0.0 0.00 0.00 0.00 73 1006.7
20260902133044 28 87 3.2 0.0 0.00 0.00 0.00 73 1006.7
20260902132552 28 79 4.8 0.0 0.00 0.00 0.00 73 1006.7
20260902132037 28 88 6.4 0.0 0.00 0.00 0.00 73 1006.7
20260902131544 28 91 6.4 0.0 0.00 0.00 0.00 73 1006.7
20260902131033 28 124 6.4 0.0 0.00 0.00 0.00 73 1006.7
20260902130538 28 92 6.4 0.0 0.00 0.00 0.00 73 1006.7
20260902130046 28 105 6.4 0.0 0.00 0.00 0.00 73 1006.7
20260902125550 28 64 11.3 0.0 0.00 0.00 0.00 73 1006.7
20260902125056 28 93 11.3 0.0 0.00 0.00 0.00 73 1006.9
20260902124543 28 127 8.0 0.0 0.00 0.00 0.00 74 1006.9
20260902124052 28 137 9.7 0.0 0.00 0.00 0.00 74 1006.9
20260902123536 28 91 9.7 0.0 0.00 0.00 0.00 75 1007.1
20260902123044 28 109 9.7 0.0 0.00 0.00 0.00 75 1007.1
20260902122533 28 117 8.0 0.0 0.00 0.00 0.00 75 1007.1
20260902122038 28 130 8.0 0.0 0.00 0.00 0.00 75 1007.0
20260902121542 28 134 6.4 0.0 0.00 0.00 0.00 75 1007.0
20260902121050 28 82 6.4 0.0 0.00 0.00 0.00 74 1007.0
20260902120535 28 130 6.4 0.0 0.00 0.00 0.00 74 1007.0
20260902120104 28 137 6.4 0.0 0.00 0.00 0.00 73 1007.0
20260902115550 28 122 6.4 0.0 0.00 0.00 0.00 73 1007.0
20260902115036 28 116 6.4 0.0 0.00 0.00 0.00 73 1006.9
20260902114544 28 107 6.4 0.0 0.00 0.00 0.00 73 1006.9
20260902114033 28 108 6.4 0.0 0.00 0.00 0.00 73 1006.9
20260902113534 28 70 3.2 0.0 0.00 0.00 0.00 72 1006.8
20260902113042 28 98 3.2 0.0 0.00 0.00 0.00 71 1006.8
20260902112532 28 94 3.2 0.0 0.00 0.00 0.00 71 1006.8
20260902112036 28 139 4.8 0.0 0.00 0.00 0.00 71 1006.8
20260902111544 28 139 4.8 0.0 0.00 0.00 0.00 71 1006.8
20260902111053 28 127 3.2 0.0 0.00 0.00 0.00 70 1006.8
20260902110537 28 127 1.6 0.0 0.00 0.00 0.00 70 1006.6
20260902110041 28 137 1.6 0.0 0.00 0.00 0.00 71 1006.6
20260902105549 28 79 4.8 0.0 0.00 0.00 0.00 71 1006.6
20260902105035 28 79 4.8 0.0 0.00 0.00 0.00 71 1006.4
20260902104543 28 100 6.4 0.0 0.00 0.00 0.00 71 1006.4
20260902104051 28 108 8.0 0.0 0.00 0.00 0.00 71 1006.4
20260902103536 28 89 6.4 0.0 0.00 0.00 0.00 71 1006.2
20260902103044 28 94 6.4 0.0 0.00 0.00 0.00 71 1006.2
20260902102533 28 94 6.4 0.0 0.00 0.00 0.00 70 1006.2
20260902102054 28 119 6.4 0.0 0.00 0.00 0.00 70 1006.1
20260902101541 28 109 8.0 0.0 0.00 0.00 0.00 70 1006.1
20260902101049 28 120 8.0 0.0 0.00 0.00 0.00 70 1006.1
20260902100534 29 77 6.4 0.0 0.00 0.00 0.00 70 1006.2
20260902100042 29 105 4.8 0.0 0.00 0.00 0.00 69 1006.2
20260902095550 29 98 3.2 0.0 0.00 0.00 0.00 68 1006.2
20260902095056 29 79 3.2 0.0 0.00 0.00 0.00 67 1006.2
20260902094543 29 91 3.2 0.0 0.00 0.00 0.00 67 1006.2
20260902094047 30 101 3.2 0.0 0.00 0.00 0.00 66 1006.2
20260902093532 30 104 4.8 0.0 0.00 0.00 0.00 66 1006.3
20260902093040 30 120 6.4 0.0 0.00 0.00 0.00 65 1006.3
20260902092547 30 77 6.4 0.0 0.00 0.00 0.00 65 1006.3
20260902092054 30 123 6.4 0.0 0.00 0.00 0.00 64 1006.3
20260902091541 30 102 6.4 0.0 0.00 0.00 0.00 64 1006.3
20260902091049 30 100 4.8 0.0 0.00 0.00 0.00 63 1006.3
20260902090535 30 101 6.4 0.0 0.00 0.00 0.00 63 1006.1
20260902090039 30 114 8.0 0.0 0.00 0.00 0.00 62 1006.1
20260902085547 30 72 11.3 0.0 0.00 0.00 0.00 62 1006.1
20260902085033 30 107 11.3 0.0 0.00 0.00 0.00 62 1006.1
20260902084540 30 103 11.3 0.0 0.00 0.00 0.00 61 1006.1
20260902084048 30 97 6.4 0.0 0.00 0.00 0.00 61 1006.1
20260902083534 30 131 8.0 0.0 0.00 0.00 0.00 61 1006.2
20260902083103 30 94 11.3 0.0 0.00 0.00 0.00 60 1006.2
20260902082607 30 106 11.3 0.0 0.00 0.00 0.00 60 1006.2
20260902082033 31 84 11.3 0.0 0.00 0.00 0.00 59 1006.0
20260902081540 31 113 11.3 0.0 0.00 0.00 0.00 58 1006.0
20260902081047 31 131 11.3 0.0 0.00 0.00 0.00 58 1006.0
20260902080533 31 124 14.5 0.0 0.00 0.00 0.00 59 1005.9
20260902080041 31 115 14.5 0.0 0.00 0.00 0.00 58 1005.9
20260902075549 31 71 12.9 0.0 0.00 0.00 0.00 56 1005.9
20260902075035 32 141 12.9 0.0 0.00 0.00 0.00 56 1005.7
20260902074539 32 115 11.3 0.0 0.00 0.00 0.00 54 1005.7
20260902074046 32 101 9.7 0.0 0.00 0.00 0.00 54 1005.7
20260902073533 32 109 11.3 0.0 0.00 0.00 0.00 54 1005.7
20260902073040 32 127 11.3 0.0 0.00 0.00 0.00 54 1005.7
20260902072547 32 124 11.3 0.0 0.00 0.00 0.00 53 1005.7
20260902072033 32 123 11.3 0.0 0.00 0.00 0.00 54 1005.6
20260902071602 32 115 9.7 0.0 0.00 0.00 0.00 54 1005.6
20260902071049 32 123 8.0 0.0 0.00 0.00 0.00 53 1005.6
20260902070611 31 130 9.7 0.0 0.00 0.00 0.00 54 1005.7
20260902070038 31 101 9.7 0.0 0.00 0.00 0.00 54 1005.7
20260902065545 32 118 8.0 0.0 0.00 0.00 0.00 52 1005.7
20260902065032 32 91 9.7 0.0 0.00 0.00 0.00 52 1005.8
20260902064538 31 113 11.3 0.0 0.00 0.00 0.00 53 1005.8
20260902064046 32 129 11.3 0.0 0.00 0.00 0.00 52 1005.8
20260902063552 32 135 14.5 0.0 0.00 0.00 0.00 52 1005.7
20260902063039 32 134 14.5 0.0 0.00 0.00 0.00 51 1005.7
20260902062604 32 145 14.5 0.0 0.00 0.00 0.00 50 1005.7
20260902062049 32 139 12.9 0.0 0.00 0.00 0.00 49 1005.7
20260902061540 32 174 12.9 0.0 0.00 0.00 0.00 49 1005.7
20260902061049 32 141 11.3 0.0 0.00 0.00 0.00 49 1005.7
20260902060555 32 82 9.7 0.0 0.00 0.00 0.00 49 1005.6
20260902060041 32 78 11.3 0.0 0.00 0.00 0.00 50 1005.6
20260902055543 32 78 12.9 0.0 0.00 0.00 0.00 49 1005.6
20260902055047 33 101 11.3 0.0 0.00 0.00 0.00 49 1005.6
20260902054533 32 147 11.3 0.0 0.00 0.00 0.00 49 1005.6
20260902054040 33 98 12.9 0.0 0.00 0.00 0.00 49 1005.6
20260902053613 33 111 11.3 0.0 0.00 0.00 0.00 46 1005.7
20260902053029 32 128 11.3 0.0 0.00 0.00 0.00 49 1005.7
20260902052538 32 91 12.9 0.0 0.00 0.00 0.00 51 1005.7
20260902052049 32 137 14.5 0.0 0.00 0.00 0.00 50 1006.0
20260902051551 32 110 11.3 0.0 0.00 0.00 0.00 52 1006.0
20260902051029 32 159 9.7 0.0 0.00 0.00 0.00 52 1006.0
20260902050533 32 120 9.7 0.0 0.00 0.00 0.00 51 1006.1
20260902050110 32 124 9.7 0.0 0.00 0.00 0.00 53 1006.1
20260902045529 32 92 11.3 0.0 0.00 0.00 0.00 53 1006.1
20260902045104 33 148 11.3 0.0 0.00 0.00 0.00 53 1006.2
20260902044608 33 124 9.7 0.0 0.00 0.00 0.00 52 1006.2
20260902044048 32 105 8.0 0.0 0.00 0.00 0.00 54 1006.2
20260902043552 32 91 9.7 0.0 0.00 0.00 0.00 54 1006.3
20260902043039 32 91 9.7 0.0 0.00 0.00 0.00 57 1006.2
20260902042547 31 115 11.3 0.0 0.00 0.00 0.00 57 1006.2
20260902042052 31 46 9.7 0.0 0.00 0.00 0.00 57 1006.6
20260902041539 32 80 8.0 0.0 0.00 0.00 0.00 57 1006.6
20260902041048 32 122 9.7 0.0 0.00 0.00 0.00 55 1006.6
20260902040534 32 110 9.7 0.0 0.00 0.00 0.00 54 1006.7
20260902040035 32 135 11.3 0.0 0.00 0.00 0.00 54 1006.7
20260902035543 32 150 11.3 0.0 0.00 0.00 0.00 54 1006.7
20260902035047 32 74 11.3 0.0 0.00 0.00 0.00 55 1006.8
20260902034533 32 105 9.7 0.0 0.00 0.00 0.00 55 1006.8
20260902034041 32 116 9.7 0.0 0.00 0.00 0.00 57 1006.8
20260902033543 32 174 9.7 0.0 0.00 0.00 0.00 56 1006.9
20260902033032 32 89 11.3 0.0 0.00 0.00 0.00 54 1006.9
20260902032538 32 72 9.7 0.0 0.00 0.00 0.00 53 1006.9
20260902032035 32 131 9.7 0.0 0.00 0.00 0.00 53 1007.0
20260902031540 31 72 8.0 0.0 0.00 0.00 0.00 55 1007.0
20260902031028 31 75 9.7 0.0 0.00 0.00 0.00 56 1007.0
20260902030532 31 45 11.3 0.0 0.00 0.00 0.00 57 1007.1
20260902030038 31 71 12.9 0.0 0.00 0.00 0.00 57 1007.1
20260902025544 31 83 12.9 0.0 0.00 0.00 0.00 58 1007.1
20260902025027 31 103 11.3 0.0 0.00 0.00 0.00 56 1007.1
20260902024527 31 49 11.3 0.0 0.00 0.00 0.00 57 1007.1
20260902024057 31 150 12.9 0.0 0.00 0.00 0.00 56 1007.1
20260902023539 32 97 12.9 0.0 0.00 0.00 0.00 56 1007.2
20260902023045 31 145 14.5 0.0 0.00 0.00 0.00 56 1007.2
20260902022532 31 143 12.9 0.0 0.00 0.00 0.00 57 1007.2
20260902022036 31 147 11.3 0.0 0.00 0.00 0.00 58 1007.3
20260902021542 31 97 11.3 0.0 0.00 0.00 0.00 57 1007.3
20260902021030 31 98 9.7 0.0 0.00 0.00 0.00 58 1007.3
20260902020528 31 158 9.7 0.0 0.00 0.00 0.00 58 1007.6
20260902020054 31 110 9.7 0.0 0.00 0.00 0.00 59 1007.6
20260902015539 31 139 8.0 0.0 0.00 0.00 0.00 61 1007.6
20260902015043 30 97 9.7 0.0 0.00 0.00 0.00 62 1007.7
20260902014530 30 49 9.7 0.0 0.00 0.00 0.00 62 1007.7
20260902014036 31 80 9.7 0.0 0.00 0.00 0.00 62 1007.7
20260902013540 31 86 12.9 0.0 0.00 0.00 0.00 60 1007.7
20260902013050 31 89 12.9 0.0 0.00 0.00 0.00 60 1007.7
20260902012555 31 145 14.5 0.0 0.00 0.00 0.00 61 1007.7
20260902012027 30 120 11.3 0.0 0.00 0.00 0.00 61 1007.7
20260902011539 31 106 6.4 0.0 0.00 0.00 0.00 63 1007.7
20260902011043 30 103 4.8 0.0 0.00 0.00 0.00 65 1007.7
20260902010546 30 122 3.2 0.0 0.00 0.00 0.00 66 1007.7
20260902010030 29 118 4.8 0.0 0.00 0.00 0.00 69 1007.7
20260902005555 29 189 3.2 0.0 0.00 0.00 0.00 69 1007.7
20260902005037 29 129 4.8 0.0 0.00 0.00 0.00 68 1007.7
20260902004541 29 65 6.4 0.0 0.00 0.00 0.00 68 1007.7
20260902004108 29 57 4.8 0.0 0.00 0.00 0.00 68 1007.7
20260902003528 28 72 3.2 0.0 0.00 0.00 0.00 70 1007.8
20260902003035 28 135 3.2 0.0 0.00 0.00 0.00 71 1007.8
20260902002540 28 87 3.2 0.0 0.00 0.00 0.00 74 1007.8
20260902002039 27 64 3.2 0.0 0.00 0.00 0.00 77 1008.1
20260902001544 27 53 4.8 0.0 0.00 0.00 0.00 77 1008.1
20260902001033 27 90 8.0 0.0 0.00 0.00 0.00 78 1008.1
20260902000559 27 98 8.0 0.0 0.00 0.00 0.00 78 1008.1
20260902000026 28 70 6.4 0.0 0.00 0.00 0.00 77 1008.1
20260901235533 28 148 6.4 0.0 0.00 0.00 0.00 72 1008.1
20260901235038 28 110 6.4 0.0 0.00 0.00 0.00 69 1007.8
20260901234527 28 124 9.7 0.0 0.00 0.00 0.00 69 1007.8
20260901234031 28 142 6.4 0.0 0.00 0.00 0.00 69 1007.8
20260901233533 28 120 3.2 0.0 0.00 0.00 0.00 70 1007.7
20260901233040 28 68 4.8 0.0 0.00 0.00 0.00 72 1007.7
20260901232528 28 82 6.4 0.0 0.00 0.00 0.00 71 1007.7
20260901232032 28 34 6.4 0.0 0.00 0.00 0.00 71 1007.7
20260901231600 28 43 4.8 0.0 0.00 0.00 0.00 71 1007.7
20260901231042 28 72 3.2 0.0 0.00 0.00 0.00 71 1007.7
20260901230538 28 74 4.8 0.0 0.00 0.00 0.00 72 1007.5
20260901230104 28 80 3.2 0.0 0.00 0.00 0.00 73 1007.5
20260901225556 28 63 1.6 0.0 0.00 0.00 0.00 74 1007.5
20260901225028 28 44 1.6 0.0 0.00 0.00 0.00 77 1007.6
20260901224532 27 94 0.0 0.0 0.00 0.00 0.00 79 1007.6
20260901224045 27 228 0.0 0.0 0.00 0.00 0.00 83 1007.6
20260901223607 26 228 0.0 0.0 0.00 0.00 0.00 84 1007.7
20260901223051 26 228 0.0 0.0 0.00 0.00 0.00 88 1007.7
20260901222529 26 228 0.0 0.0 0.00 0.00 0.00 88 1007.7
20260901222051 25 228 0.0 0.0 0.00 0.00 0.00 89 1007.9
20260901221534 25 228 0.0 0.0 0.00 0.00 0.00 89 1007.9
20260901221042 25 228 0.0 0.0 0.00 0.00 0.00 90 1007.9
20260901220527 25 228 0.0 0.0 0.00 0.00 0.00 90 1007.8
20260901220035 25 228 0.0 0.0 0.00 0.00 0.00 91 1007.8
20260901215543 25 228 0.0 0.0 0.00 0.00 0.00 91 1007.8
20260901215105 25 228 0.0 0.0 0.00 0.00 0.00 92 1007.7
20260901214528 25 228 0.0 0.0 0.00 0.00 0.00 92 1007.7
20260901214033 25 228 0.0 0.0 0.00 0.00 0.00 93 1007.7
20260901213534 24 228 0.0 0.0 0.00 0.00 0.00 93 1007.6
20260901213059 24 228 0.0 0.0 0.00 0.00 0.00 93 1007.6
20260901212545 24 228 0.0 0.0 0.00 0.00 0.00 93 1007.6
20260901212050 24 228 0.0 0.0 0.00 0.00 0.00 93 1007.5
20260901211529 24 228 3.2 0.0 0.00 0.00 0.00 93 1007.5
20260901211038 24 228 3.2 0.0 0.00 0.00 0.00 93 1007.5
20260901210541 24 228 0.0 0.0 0.00 0.00 0.00 93 1007.6
20260901210048 24 228 0.0 0.0 0.00 0.00 0.00 93 1007.6
20260901205534 24 228 0.0 0.0 0.00 0.00 0.00 93 1007.6
20260901205039 24 228 0.0 0.0 0.00 0.00 0.00 93 1007.5
20260901204526 24 228 0.0 0.0 0.00 0.00 0.00 93 1007.5
20260901204054 24 228 0.0 0.0 0.00 0.00 0.00 93 1007.5
20260901203533 24 228 0.0 0.0 0.00 0.00 0.00 93 1007.6
20260901203041 24 228 0.0 0.0 0.00 0.00 0.00 93 1007.6
20260901202556 24 228 0.0 0.0 0.00 0.00 0.00 93 1007.6
20260901202031 24 228 1.6 0.0 0.00 0.00 0.00 92 1007.6
20260901201548 25 228 0.0 0.0 0.00 0.00 0.00 92 1007.6
20260901201054 25 229 0.0 0.0 0.00 0.00 0.00 92 1007.6
20260901200529 25 229 0.0 0.0 0.00 0.00 0.00 91 1007.7
20260901200033 25 229 0.0 0.0 0.00 0.00 0.00 91 1007.7
20260901195550 25 229 0.0 0.0 0.00 0.00 0.00 91 1007.7
20260901195026 25 229 0.0 0.0 0.00 0.00 0.00 91 1007.5
20260901194534 25 229 0.0 0.0 0.00 0.00 0.00 91 1007.5
20260901194050 25 229 0.0 0.0 0.00 0.00 0.00 91 1007.5
20260901193551 25 229 0.0 0.0 0.00 0.00 0.00 90 1007.7
20260901193039 25 229 0.0 0.0 0.00 0.00 0.00 90 1007.7
20260901192547 25 229 0.0 0.0 0.00 0.00 0.00 90 1007.7
20260901192108 25 229 0.0 0.0 0.00 0.00 0.00 90 1007.7
20260901191527 25 229 0.0 0.0 0.00 0.00 0.00 90 1007.7
20260901191042 25 229 0.0 0.0 0.00 0.00 0.00 90 1007.7
20260901190608 25 229 0.0 0.0 0.00 0.00 0.00 90 1007.7
20260901190027 25 229 0.0 0.0 0.00 0.00 0.00 90 1007.7
20260901185544 25 229 1.6 0.0 0.00 0.00 0.00 90 1007.7